This demonstration page uses our WeatherBlox Daily Observations layout. Learn more.

Left ArrowRight Arrow

53.62937, 11.41316

Hourly Observations for April 14, 2022

Temp ( °F °C ) Dew Point ( °F °C ) Humidity (%) Winds ( mph kmh ) Pressure ( in mb ) Visibility ( mi km ) Precip ( " mm )
12:20 am 00:20 Mostly Cloudy 54 12 52 11 94 94 WNW 6 9 30.09 1019 4 6 N/A
12:50 am 00:50 Mostly Cloudy 52 11 52 11 100 100 W 3 6 30.09 1019 3 5 N/A
1:20 am 01:20 Mostly Cloudy 52 11 52 11 100 100 W 3 6 30.09 1019 3 5 N/A
1:50 am 01:50 Mostly Cloudy 52 11 52 11 100 100 VRB 1 2 30.09 1019 3 5 N/A
2:20 am 02:20 Mostly Cloudy 52 11 52 11 100 100 VRB 2 4 30.09 1019 3 5 N/A
2:50 am 02:50 Mostly Cloudy 52 11 52 11 100 100 S 3 6 30.09 1019 4 6 N/A
3:20 am 03:20 Mostly Clear 52 11 52 11 100 100 S 3 6 30.06 1018 4 7 N/A
3:50 am 03:50 Mostly Cloudy 52 11 50 10 94 94 VRB 2 4 30.06 1018 3 5 N/A
4:20 am 04:20 Mostly Cloudy 52 11 50 10 94 94 WSW 3 6 30.06 1018 4 6 N/A
4:50 am 04:50 Partly Cloudy 52 11 50 10 94 94 SSW 3 6 30.06 1018 30 48 N/A
5:20 am 05:20 Mostly Cloudy 52 11 50 10 94 94 VRB 2 4 30.06 1018 30 48 N/A
5:50 am 05:50 Partly Cloudy 50 10 50 10 100 100 VRB 2 4 30.06 1018 6 9 N/A
6:20 am 06:20 Partly Cloudy 50 10 50 10 100 100 VRB 2 4 30.06 1018 4 7 N/A
6:50 am 06:50 Mostly Sunny 50 10 50 10 100 100 VRB 2 4 30.06 1018 4 6 N/A
7:20 am 07:20 Mostly Sunny 50 10 50 10 100 100 S 5 7 30.06 1018 4 6 N/A
7:50 am 07:50 Mostly Cloudy with Mist and Fog 52 11 50 10 94 94 SSW 5 7 30.06 1018 2 3 N/A
8:20 am 08:20 Mostly Cloudy with Mist and Fog 52 11 52 11 100 100 SSW 5 7 30.06 1018 2 3 N/A
8:50 am 08:50 Mostly Cloudy with Mist and Fog 52 11 52 11 100 100 VRB 5 7 30.06 1018 2 4 N/A
9:20 am 09:20 Mostly Cloudy 54 12 52 11 94 94 VRB 5 7 30.06 1018 4 6 N/A
9:50 am 09:50 Mostly Cloudy 54 12 52 11 94 94 WSW 7 11 30.06 1018 5 8 N/A
10:20 am 10:20 Mostly Cloudy 55 13 52 11 88 88 WSW 8 13 30.06 1018 30 48 N/A
10:50 am 10:50 Cloudy 55 13 50 10 82 82 WSW 9 15 30.06 1018 30 48 N/A
11:20 am 11:20 Cloudy 55 13 50 10 82 82 W 9 15 30.09 1019 30 48 N/A
11:50 am 11:50 Mostly Cloudy 55 13 52 11 88 88 WNW 8 13 30.09 1019 30 48 N/A
12:20 pm 12:20 Partly Cloudy 57 14 50 10 77 77 WSW 8 13 30.06 1018 30 48 N/A
12:50 pm 12:50 Mostly Sunny 57 14 48 9 72 72 W 7 11 30.09 1019 30 48 N/A
1:20 pm 13:20 Mostly Sunny 59 15 48 9 68 68 W 8 13 30.09 1019 30 48 N/A
1:50 pm 13:50 Mostly Sunny 59 15 46 8 63 63 W 8 13 30.06 1018 30 48 N/A
2:20 pm 14:20 Partly Cloudy 61 16 46 8 59 59 W 9 15 30.06 1018 30 48 N/A
2:50 pm 14:50 Mostly Sunny 61 16 48 9 63 63 WSW 9 15 30.06 1018 30 48 N/A
3:20 pm 15:20 Partly Cloudy 59 15 46 8 63 63 W 9 15 30.06 1018 30 48 N/A
3:50 pm 15:50 Mostly Sunny 59 15 46 8 63 63 W 9 15 30.06 1018 30 48 N/A
4:20 pm 16:20 Mostly Sunny 61 16 46 8 59 59 W 9 15 30.06 1018 30 48 N/A
4:50 pm 16:50 Mostly Sunny 59 15 46 8 63 63 W 12 19 30.06 1018 30 48 N/A
5:20 pm 17:20 Mostly Sunny 59 15 48 9 68 68 WSW 10 17 30.06 1018 30 48 N/A
5:50 pm 17:50 Partly Cloudy 59 15 48 9 68 68 W 10 17 30.06 1018 30 48 N/A
6:20 pm 18:20 Partly Cloudy 57 14 48 9 72 72 W 10 17 30.06 1018 30 48 N/A
6:50 pm 18:50 Partly Cloudy 57 14 45 7 63 63 W 10 17 30.09 1019 30 48 N/A
7:20 pm 19:20 Partly Cloudy 55 13 43 6 63 63 W 16 26 30.09 1019 30 48 N/A
7:50 pm 19:50 Mostly Sunny 54 12 43 6 67 67 W 13 20 30.09 1019 30 48 N/A
8:20 pm 20:20 Mostly Clear 52 11 43 6 72 72 W 10 17 30.09 1019 30 48 N/A
8:50 pm 20:50 Mostly Clear 50 10 43 6 76 76 W 12 19 30.12 1020 30 48 N/A
9:20 pm 21:20 Mostly Clear 48 9 41 5 76 76 W 13 20 30.12 1020 30 48 N/A
9:50 pm 21:50 Mostly Cloudy 48 9 41 5 76 76 W 10 17 30.12 1020 30 48 N/A
10:20 pm 22:20 Cloudy 48 9 41 5 76 76 W 9 15 30.12 1020 30 48 N/A
10:50 pm 22:50 Cloudy 48 9 43 6 82 82 W 9 15 30.15 1021 30 48 N/A
11:20 pm 23:20 Cloudy 48 9 43 6 82 82 W 9 15 30.15 1021 30 48 N/A
11:50 pm 23:50 Cloudy 48 9 43 6 82 82 W 9 15 30.15 1021 30 48 N/A

Powered by AerisWeather